Retour au catalogue

SL-8 R/B

ActifPO
NORAD 24955·ROCKET BODY·🇷🇺 Russia

Lancé Sep 23, 1997 depuis Plesetsk Cosmodrome

Loading…

Prochains Passages (prochaines 24 heures)

TLE

FraisSource: Space-Track

Époque: Sep 14, 2026, 17:01 UTC

1 24955U 97052C   26257.70954807  .00000185  00000-0  15802-3 0  9993
2 24955  82.9157 254.3890 0028926 334.2141  25.7575 13.81948915460779

Suivez SL-8 R/B en temps réel avec AllMySat

Download on the App Store